Wind_Speed
15 17 21 18 18 18 16 15 9 12 18 21 27 30 28 29 32 31 29 31 31 30 30 32 31 31 32 31 32 33 32 33 34 34 36 38 38 39 40 41 42 43 43 45
15 22 15 12 18 19 20 19 17 13 21 22 28 33 32 30 33 27 24 27 31 31 34 35 32 29 30 31 33 30 31 30 33 33 34 35 36 38 40 43 45 45 45 46
22 11 12 21 22 23 24 22 17 16 15 21 26 35 25 18 27 30 24 24 28 30 33 34 31 24 26 28 28 27 28 29 30 31 33 33 35 38 40 42 43 45 47 47
20 21 21 22 24 23 22 18 18 20 16 12 8 12 23 14 24 21 20 20 19 23 28 30 27 20 21 22 24 22 25 27 31 33 31 33 36 37 39 41 43 45 46 47
16 18 23 26 25 19 22 17 18 17 16 18 25 16 20 6 16 17 20 19 14 19 22 21 25 23 21 21 20 22 24 29 31 31 32 35 35 38 40 42 44 45 46 47
27 19 21 23 18 20 20 19 19 19 16 12 25 25 29 18 18 11 17 16 19 18 22 21 21 23 22 21 23 23 25 30 31 31 33 35 37 39 40 42 43 44 46 47
30 33 33 26 27 27 30 20 5 6 6 8 14 24 35 7 13 12 22 26 23 22 21 20 20 21 23 24 25 27 30 32 30 32 33 35 38 39 40 42 43 44 46 46
19 17 33 36 42 35 36 33 16 6 7 12 13 10 16 17 15 18 28 29 26 22 19 19 18 21 26 27 30 30 32 30 30 31 33 35 37 39 41 42 43 44 45 44
20 32 27 38 26 28 25 31 33 28 32 17 24 29 27 24 36 27 21 24 25 14 14 15 20 22 25 29 33 31 33 31 30 30 32 35 36 38 40 41 43 43 43 41
36 34 26 33 31 27 34 13 16 21 5 8 14 23 19 19 20 24 23 24 18 15 18 19 21 23 26 29 30 33 32 29 30 31 34 35 36 38 39 41 41 41 40 39
41 35 17 32 39 40 36 41 23 24 25 4 10 13 23 27 16 18 18 20 19 18 21 26 25 24 27 28 30 32 29 29 31 33 35 35 36 38 38 39 39 39 38 34
35 24 35 45 41 31 43 43 49 26 18 30 36 37 27 20 26 30 28 25 26 22 23 30 30 30 29 27 29 28 28 30 32 34 34 34 36 37 38 37 37 37 34 32
32 31 36 34 26 33 36 40 39 46 36 39 26 30 24 26 23 31 29 25 23 27 36 34 32 30 28 27 26 27 29 31 32 33 34 34 35 36 35 34 36 35 31 31
37 36 35 36 43 30 34 40 46 45 41 51 45 50 43 33 27 28 28 32 36 34 34 30 30 26 28 27 27 29 29 31 31 32 32 33 34 35 32 33 35 31 30 32
31 44 50 51 44 35 37 38 40 52 60 47 52 50 53 43 43 45 37 33 29 33 39 36 28 26 29 26 28 30 31 31 31 32 33 33 34 34 31 33 33 30 32 34
28 29 41 45 50 51 50 51 43 41 44 54 51 61 48 37 27 29 25 23 28 35 45 37 29 28 26 27 28 30 31 31 31 32 32 33 33 32 31 33 34 32 33 35
53 44 37 38 44 47 46 56 53 48 41 42 47 65 48 48 44 43 45 45 45 43 42 36 28 27 26 28 29 30 31 31 31 31 31 32 31 31 32 34 35 34 35 35
52 58 45 36 42 35 48 52 52 46 53 53 55 63 57 56 49 42 35 36 40 33 28 28 31 26 27 27 29 30 31 31 30 30 30 30 30 31 32 34 36 36 35 34
35 42 34 27 35 36 30 46 36 45 47 41 49 45 39 44 45 49 42 38 32 28 30 29 26 26 27 28 29 29 29 29 28 29 29 29 29 31 33 35 36 35 35 34
20 27 30 39 9 10 45 44 33 40 45 38 36 42 39 33 43 44 30 28 27 30 25 25 26 25 26 27 28 28 28 27 26 27 28 28 29 31 34 34 34 33 34 34
29 25 28 30 16 25 27 33 39 30 34 26 17 13 19 25 35 31 24 24 18 17 21 21 20 23 27 27 27 27 25 25 26 26 27 28 29 32 33 34 32 33 34 36
29 24 23 17 10 19 32 9 2 11 19 29 23 26 21 19 24 29 25 22 17 16 16 16 18 23 26 27 26 25 24 24 25 26 27 27 30 32 32 32 30 32 34 36
30 18 22 19 22 30 21 26 18 15 24 17 12 20 18 16 12 15 21 26 19 19 18 16 19 24 26 26 25 25 23 23 24 26 26 28 30 31 31 31 31 32 34 36
37 33 37 36 47 46 44 43 47 47 28 27 27 22 19 16 16 17 19 22 24 22 23 21 24 25 26 25 25 24 23 23 25 25 25 28 30 31 31 32 31 31 34 35
45 42 44 46 51 42 31 27 30 40 36 31 28 28 24 19 14 16 18 21 25 27 28 26 29 26 26 25 25 24 22 23 24 24 25 27 30 31 32 32 31 31 33 34
45 46 46 49 40 40 52 41 21 25 29 24 29 36 33 26 20 20 22 26 26 30 30 28 31 29 27 25 24 23 22 23 23 24 26 28 30 31 31 33 33 31 30 30
Wind_Direction
235 229 235 245 248 237 268 249 285 256 262 259 271 279 278 271 270 261 260 263 264 270 273 271 271 273 273 271 273 276 279 279 280 284 288 292 297 302 306 308 309 308 309 310
245 242 239 242 239 248 241 256 259 263 267 265 275 277 280 270 272 277 266 256 262 265 267 272 275 274 272 271 271 276 273 275 281 285 289 294 299 304 307 308 308 310 309 309
223 245 227 230 236 232 242 247 249 263 248 266 283 282 285 278 261 267 264 258 256 263 267 273 278 277 269 267 270 268 274 281 285 288 292 296 302 304 307 307 308 309 310 310
252 240 244 241 244 246 244 250 243 245 256 277 241 285 267 249 264 266 273 266 266 266 267 272 280 275 266 264 263 274 279 286 290 292 294 299 302 304 307 307 309 309 310 310
224 242 241 248 249 232 239 238 240 251 259 269 261 262 281 276 268 268 277 270 275 270 264 273 279 275 266 260 270 279 283 290 291 293 296 300 304 308 308 309 309 311 312 312
236 246 244 248 239 216 234 233 246 264 264 256 252 232 274 271 269 262 269 276 291 271 270 271 267 267 263 266 275 275 292 297 292 292 298 304 306 306 307 308 310 311 312 314
243 241 243 239 223 225 232 231 237 236 196 246 270 231 238 219 231 252 249 264 279 276 268 268 269 266 266 270 281 282 295 296 292 294 301 302 305 306 306 309 312 313 314 315
239 241 236 246 242 244 238 227 208 238 228 256 238 238 248 258 248 253 275 274 272 273 268 268 267 270 275 271 285 285 292 292 293 296 299 302 305 305 308 311 315 315 315 318
232 247 247 244 251 234 237 221 237 256 268 279 260 264 267 261 270 259 263 276 263 252 260 270 271 275 277 277 283 284 295 295 296 296 300 303 304 306 309 314 315 316 317 321
246 256 246 239 229 229 217 236 213 216 245 237 250 248 245 271 258 251 254 267 238 266 262 294 289 279 278 281 283 288 294 296 296 298 301 303 306 307 311 314 315 318 320 321
245 238 262 221 219 226 218 222 213 222 223 228 261 252 254 254 253 253 249 235 244 278 271 296 294 284 285 285 285 291 294 297 298 301 302 304 307 308 312 313 315 318 321 325
245 239 244 237 240 243 245 242 226 217 223 236 244 250 240 244 269 269 260 252 262 269 270 289 288 284 288 284 285 289 294 297 298 299 300 304 304 309 311 313 319 322 323 322
249 237 249 257 239 225 226 225 236 233 243 252 247 255 265 253 250 243 252 260 254 274 288 285 285 286 285 282 281 286 292 294 296 297 300 302 305 308 310 316 322 323 321 318
251 243 236 238 240 233 227 231 229 226 235 243 244 254 248 250 246 252 255 267 280 281 279 280 286 281 280 278 280 287 290 293 294 295 298 300 305 306 310 320 326 324 319 316
251 243 246 251 255 250 247 242 241 226 239 234 248 249 254 253 251 260 269 272 266 271 278 287 282 279 277 276 282 288 292 294 295 298 299 302 305 305 314 323 327 321 316 316
236 264 255 259 255 252 257 258 252 242 247 241 243 255 255 250 246 246 256 262 267 272 278 281 277 277 276 279 283 288 291 292 294 295 297 299 301 307 314 323 328 324 317 316
277 281 290 277 259 252 247 245 246 244 244 243 234 259 264 260 258 261 259 259 256 261 267 274 272 276 275 280 284 288 288 290 292 292 296 299 303 307 315 321 324 321 316 316
279 278 283 275 273 246 245 242 242 247 248 247 247 257 263 266 265 265 253 261 272 267 259 263 274 271 278 278 282 286 289 291 290 293 295 299 303 307 313 317 320 318 314 316
273 273 263 268 252 262 246 236 228 226 244 252 251 258 271 264 259 259 259 262 262 260 260 267 268 276 277 278 281 282 283 283 286 289 293 299 304 308 311 315 317 315 314 318
272 264 264 269 259 249 249 233 239 246 252 249 252 266 269 268 258 255 251 255 253 246 257 265 272 273 277 279 280 281 282 282 285 288 298 302 306 307 310 313 315 315 317 320
274 277 270 273 278 301 258 250 230 235 258 269 254 282 272 266 255 260 252 240 228 248 265 267 273 281 280 278 278 278 279 281 285 295 302 304 305 308 312 315 318 320 321 321
279 270 274 274 272 268 266 173 159 312 238 239 269 290 301 274 254 246 236 209 233 284 270 279 284 285 282 278 278 280 281 284 293 301 302 303 306 311 315 316 318 321 320 318
292 275 285 262 269 279 255 290 250 276 249 227 243 257 274 264 240 235 228 220 250 290 278 291 304 295 284 279 280 281 284 290 297 300 302 305 310 315 317 317 319 323 322 318
287 289 280 283 275 278 279 274 299 306 266 233 239 247 260 250 233 225 242 247 263 276 285 295 310 302 285 282 283 283 286 293 296 299 303 309 314 316 317 319 322 324 322 317
277 282 273 278 280 291 300 302 302 297 307 250 239 245 246 227 217 236 249 261 277 279 287 293 305 298 285 281 282 283 287 292 296 300 307 312 314 316 318 318 321 325 322 317
277 276 274 271 278 284 293 297 273 289 292 316 260 238 242 241 221 240 262 268 276 271 276 288 297 295 282 278 278 280 286 292 296 304 311 314 314 317 317 317 320 323 319 317
Height
3159 3159 3157 3159 3160 3162 3163 3163 3162 3163 3159 3158 3156 3154 3154 3153 3151 3151 3153 3153 3153 3154 3154 3154 3154 3154 3153 3154 3154 3153 3152 3150 3149 3148 3147 3145 3143 3141 3138 3135 3132 3130 3126 3122
3157 3153 3156 3159 3160 3159 3160 3159 3159 3160 3157 3155 3154 3148 3147 3146 3141 3144 3146 3146 3147 3148 3147 3145 3146 3148 3147 3147 3146 3146 3144 3144 3143 3142 3140 3139 3137 3133 3130 3126 3122 3119 3117 3115
3152 3153 3153 3154 3155 3155 3154 3154 3156 3158 3152 3151 3149 3138 3139 3138 3138 3136 3137 3139 3140 3140 3140 3137 3138 3141 3140 3139 3139 3139 3138 3137 3137 3135 3134 3132 3129 3126 3123 3119 3115 3112 3109 3105
3149 3149 3149 3149 3149 3151 3150 3151 3152 3150 3150 3149 3145 3136 3134 3134 3132 3132 3132 3132 3134 3134 3133 3131 3131 3133 3133 3133 3132 3133 3132 3131 3129 3128 3126 3124 3122 3119 3115 3111 3108 3105 3100 3095
3144 3143 3144 3144 3145 3147 3146 3146 3147 3147 3146 3145 3142 3141 3122 3128 3124 3126 3127 3127 3128 3128 3127 3126 3125 3126 3127 3127 3127 3127 3127 3125 3122 3120 3118 3116 3114 3110 3106 3103 3100 3096 3091 3085
3138 3138 3138 3139 3142 3144 3141 3144 3143 3143 3142 3136 3132 3135 3115 3120 3117 3120 3120 3120 3121 3122 3121 3120 3121 3120 3121 3121 3122 3122 3120 3118 3115 3113 3111 3108 3106 3103 3099 3096 3092 3087 3081 3077
3133 3130 3131 3134 3134 3136 3136 3140 3140 3140 3138 3126 3123 3121 3110 3114 3115 3115 3115 3116 3116 3116 3115 3114 3115 3115 3116 3116 3115 3114 3113 3110 3108 3105 3104 3102 3098 3094 3091 3087 3083 3078 3072 3067
3126 3124 3123 3123 3122 3125 3125 3129 3130 3128 3125 3118 3116 3109 3105 3109 3109 3110 3109 3108 3108 3109 3109 3109 3110 3110 3110 3110 3109 3108 3106 3104 3101 3099 3097 3094 3091 3086 3083 3078 3073 3068 3062 3057
3117 3111 3118 3110 3117 3120 3119 3118 3123 3122 3117 3118 3106 3101 3102 3102 3101 3103 3101 3100 3100 3103 3104 3105 3105 3104 3104 3103 3101 3099 3097 3095 3093 3092 3089 3086 3083 3079 3075 3069 3064 3059 3053 3047
3105 3106 3108 3105 3108 3109 3112 3115 3118 3117 3112 3109 3094 3095 3093 3094 3092 3094 3095 3094 3094 3096 3097 3098 3098 3097 3096 3094 3092 3091 3089 3087 3085 3083 3080 3078 3075 3071 3066 3061 3055 3050 3044 3039
3101 3104 3101 3094 3089 3093 3100 3101 3104 3104 3099 3094 3090 3085 3088 3088 3088 3085 3089 3088 3089 3090 3091 3090 3090 3089 3088 3086 3084 3082 3080 3078 3076 3074 3072 3070 3066 3062 3058 3053 3048 3042 3035 3030
3095 3095 3088 3082 3083 3087 3087 3087 3089 3089 3086 3083 3079 3069 3079 3080 3082 3082 3081 3082 3083 3083 3084 3083 3081 3080 3079 3078 3076 3074 3073 3070 3069 3067 3065 3062 3059 3054 3050 3045 3039 3033 3027 3023
3088 3084 3081 3080 3079 3075 3071 3077 3081 3081 3084 3072 3071 3063 3070 3071 3073 3071 3073 3073 3075 3076 3076 3074 3072 3071 3070 3069 3069 3067 3065 3063 3062 3060 3057 3054 3050 3046 3042 3037 3031 3025 3020 3017
3078 3074 3070 3061 3061 3065 3062 3065 3067 3071 3069 3054 3060 3058 3064 3064 3066 3066 3067 3066 3065 3065 3065 3066 3065 3064 3062 3061 3060 3059 3058 3056 3055 3052 3050 3046 3042 3038 3034 3029 3023 3018 3013 3009
3069 3058 3057 3054 3056 3057 3054 3051 3052 3049 3043 3051 3045 3044 3047 3057 3060 3060 3058 3060 3056 3055 3055 3056 3057 3056 3054 3052 3051 3050 3049 3048 3046 3043 3040 3037 3034 3030 3025 3021 3016 3011 3007 3002
3050 3045 3043 3038 3043 3045 3043 3042 3041 3036 3035 3036 3044 3027 3039 3049 3052 3053 3050 3049 3047 3045 3043 3046 3048 3048 3046 3044 3044 3043 3042 3040 3038 3036 3032 3030 3026 3021 3018 3013 3009 3004 3000 2995
3039 3035 3036 3025 3030 3030 3025 3022 3025 3029 3026 3027 3027 3008 3034 3034 3039 3041 3041 3042 3043 3040 3038 3037 3039 3039 3038 3037 3036 3035 3034 3032 3030 3028 3025 3021 3017 3013 3010 3006 3002 2998 2993 2988
3027 3027 3023 3017 3021 3000 2999 3008 3013 3016 3015 3016 3015 3010 3019 3021 3026 3028 3028 3029 3029 3031 3032 3032 3031 3032 3031 3030 3029 3027 3024 3023 3021 3019 3016 3013 3009 3006 3003 2999 2995 2991 2986 2981
3019 3017 3013 3007 3003 2996 2995 2995 2999 2999 2998 3005 3005 3004 3010 3011 3016 3012 3016 3019 3021 3022 3023 3023 3023 3023 3023 3022 3021 3020 3019 3017 3014 3011 3009 3006 3003 2999 2996 2993 2988 2983 2978 2973
3015 3013 3008 3009 2988 2979 2982 2989 2992 2996 2985 2996 2998 2995 2998 3003 3000 2997 3007 3010 3012 3014 3016 3016 3016 3015 3015 3014 3013 3012 3011 3008 3006 3004 3001 2999 2996 2993 2989 2985 2980 2975 2970 2964
3005 3002 3001 2994 2992 2986 2980 2984 2987 2985 2988 2991 2991 2987 2988 2989 2990 2995 2998 3001 3004 3007 3009 3008 3008 3007 3006 3005 3005 3004 3003 3001 2998 2996 2994 2991 2989 2985 2982 2977 2972 2967 2961 2956
2997 2995 2991 2987 2985 2988 2975 2967 2970 2974 2974 2977 2980 2980 2982 2981 2981 2985 2990 2993 2997 3000 3000 3000 3000 2999 2998 2997 2997 2996 2994 2992 2990 2989 2987 2985 2982 2978 2974 2969 2965 2960 2954 2950
2991 2987 2981 2980 2975 2979 2973 2964 2965 2965 2967 2971 2972 2978 2979 2979 2979 2982 2985 2988 2990 2992 2993 2993 2993 2992 2990 2988 2988 2987 2986 2985 2983 2982 2980 2977 2973 2969 2965 2961 2957 2952 2947 2942
2979 2982 2976 2975 2965 2964 2963 2959 2961 2960 2959 2962 2966 2969 2975 2976 2977 2979 2982 2983 2985 2985 2986 2984 2984 2984 2982 2981 2980 2980 2979 2978 2977 2976 2972 2968 2964 2961 2958 2954 2949 2945 2941 2936
2971 2973 2966 2961 2949 2956 2956 2953 2954 2954 2953 2953 2956 2962 2968 2970 2971 2974 2975 2976 2977 2977 2977 2977 2976 2975 2974 2974 2972 2972 2973 2972 2971 2968 2965 2961 2957 2953 2949 2946 2942 2938 2934 2929
2961 2959 2959 2950 2957 2955 2949 2946 2948 2949 2951 2949 2947 2950 2954 2959 2961 2963 2965 2966 2968 2969 2969 2969 2969 2969 2967 2967 2966 2966 2966 2965 2963 2961 2957 2953 2949 2945 2942 2937 2934 2931 2927 2923